Year,Month,Day,Hour,Minute,Value (Times are PST for temperature in C)
2007,06,20,00,00,14.40
2007,06,20,00,01,14.40
2007,06,20,00,02,14.40
2007,06,20,00,03,14.40
2007,06,20,00,04,14.40
2007,06,20,00,05,14.40
2007,06,20,00,06,14.40
2007,06,20,00,07,14.40
2007,06,20,00,08,14.40
2007,06,20,00,09,14.40
2007,06,20,00,10,14.40
2007,06,20,00,11,14.40
2007,06,20,00,12,14.40
2007,06,20,00,13,14.50
2007,06,20,00,15,14.50
2007,06,20,00,16,14.50
2007,06,20,00,17,14.50
2007,06,20,00,18,14.50
2007,06,20,00,19,14.50
2007,06,20,00,20,14.40
2007,06,20,00,21,14.40
2007,06,20,00,22,14.40
2007,06,20,00,23,14.40
2007,06,20,00,24,14.40
2007,06,20,00,25,14.40
2007,06,20,00,26,14.40
2007,06,20,00,27,14.40
2007,06,20,00,28,14.40
2007,06,20,00,29,14.40
2007,06,20,00,30,14.40
2007,06,20,00,31,14.40
2007,06,20,00,32,14.30
2007,06,20,00,33,14.30
2007,06,20,00,34,14.30
2007,06,20,00,35,14.30
2007,06,20,00,36,14.30
2007,06,20,00,37,14.30
2007,06,20,00,38,14.30
2007,06,20,00,39,14.20
2007,06,20,00,40,14.20
2007,06,20,00,41,14.20
2007,06,20,00,42,14.20
2007,06,20,00,43,14.20
2007,06,20,00,44,14.10
2007,06,20,00,45,14.10
2007,06,20,00,46,14.10
2007,06,20,00,47,14.20
2007,06,20,00,48,14.20
2007,06,20,00,49,14.20
2007,06,20,00,50,14.30
2007,06,20,00,51,14.30
2007,06,20,00,52,14.30
2007,06,20,00,53,14.30
2007,06,20,00,54,14.30
2007,06,20,00,55,14.30
2007,06,20,00,56,14.30
2007,06,20,00,57,14.30
2007,06,20,00,58,14.30
2007,06,20,00,59,14.40
2007,06,20,01,00,14.40
2007,06,20,01,01,14.50
2007,06,20,01,02,14.50
2007,06,20,01,03,14.50
2007,06,20,01,04,14.50
2007,06,20,01,05,14.50
2007,06,20,01,06,14.50
2007,06,20,01,07,14.50
2007,06,20,01,08,14.50
2007,06,20,01,09,14.40
2007,06,20,01,10,14.40
2007,06,20,01,11,14.40
2007,06,20,01,12,14.40
2007,06,20,01,13,14.30
2007,06,20,01,14,14.30
2007,06,20,01,15,14.30
2007,06,20,01,16,14.30
2007,06,20,01,17,14.30
2007,06,20,01,18,14.30
2007,06,20,01,19,14.20
2007,06,20,01,20,14.20
2007,06,20,01,21,14.10
2007,06,20,01,22,14.10
2007,06,20,01,23,14.10
2007,06,20,01,24,14.10
2007,06,20,01,25,14.00
2007,06,20,01,26,14.00
2007,06,20,01,27,14.00
2007,06,20,01,28,14.00
2007,06,20,01,29,14.10
2007,06,20,01,30,14.10
2007,06,20,01,31,14.00
2007,06,20,01,32,14.00
2007,06,20,01,33,13.90
2007,06,20,01,34,13.90
2007,06,20,01,35,13.90
2007,06,20,01,36,13.90
2007,06,20,01,37,13.80
2007,06,20,01,38,13.80
2007,06,20,01,39,13.80
2007,06,20,01,40,13.80
2007,06,20,01,41,13.70
2007,06,20,01,42,13.70
2007,06,20,01,43,13.70
2007,06,20,01,44,13.60
2007,06,20,01,45,13.60
2007,06,20,01,46,13.60
2007,06,20,01,47,13.50
2007,06,20,01,48,13.50
2007,06,20,01,49,13.40
2007,06,20,01,50,13.40
2007,06,20,01,51,13.30
2007,06,20,01,52,13.30
2007,06,20,01,53,13.30
2007,06,20,01,54,13.30
2007,06,20,01,55,13.20
2007,06,20,01,56,13.20
2007,06,20,01,57,13.20
2007,06,20,01,58,13.20
2007,06,20,01,59,13.20
2007,06,20,02,00,13.20
2007,06,20,02,01,13.20
2007,06,20,02,02,13.10
2007,06,20,02,03,13.10
2007,06,20,02,04,13.10
2007,06,20,02,05,13.10
2007,06,20,02,06,13.10
2007,06,20,02,07,13.10
2007,06,20,02,08,13.00
2007,06,20,02,09,13.00
2007,06,20,02,10,13.00
2007,06,20,02,11,13.00
2007,06,20,02,12,12.90
2007,06,20,02,13,12.90
2007,06,20,02,14,12.90
2007,06,20,02,15,12.90
2007,06,20,02,16,12.90
2007,06,20,02,17,12.80
2007,06,20,02,18,12.80
2007,06,20,02,19,12.80
2007,06,20,02,20,12.80
2007,06,20,02,21,12.70
2007,06,20,02,22,12.70
2007,06,20,02,23,12.70
2007,06,20,02,24,12.70
2007,06,20,02,25,12.70
2007,06,20,02,26,12.60
2007,06,20,02,27,12.60
2007,06,20,02,28,12.60
2007,06,20,02,29,12.50
2007,06,20,02,30,12.50
2007,06,20,02,31,12.50
2007,06,20,02,32,12.40
2007,06,20,02,33,12.40
2007,06,20,02,34,12.40
2007,06,20,02,35,12.40
2007,06,20,02,36,12.30
2007,06,20,02,37,12.30
2007,06,20,02,38,12.30
2007,06,20,02,39,12.30
2007,06,20,02,40,12.20
2007,06,20,02,41,12.20
2007,06,20,02,42,12.20
2007,06,20,02,43,12.20
2007,06,20,02,44,12.10
2007,06,20,02,45,12.10
2007,06,20,02,46,12.10
2007,06,20,02,47,12.10
2007,06,20,02,48,12.00
2007,06,20,02,49,12.00
2007,06,20,02,50,11.90
2007,06,20,02,51,11.90
2007,06,20,02,52,11.90
2007,06,20,02,53,11.90
2007,06,20,02,54,11.80
2007,06,20,02,55,11.80
2007,06,20,02,56,11.80
2007,06,20,02,57,11.80
2007,06,20,02,58,11.70
2007,06,20,02,59,11.70
2007,06,20,03,00,11.70
2007,06,20,03,01,11.70
2007,06,20,03,02,11.70
2007,06,20,03,03,11.60
2007,06,20,03,04,11.60
2007,06,20,03,05,11.60
2007,06,20,03,06,11.60
2007,06,20,03,07,11.50
2007,06,20,03,08,11.50
2007,06,20,03,09,11.50
2007,06,20,03,10,11.50
2007,06,20,03,11,11.40
2007,06,20,03,12,11.40
2007,06,20,03,13,11.40
2007,06,20,03,14,11.40
2007,06,20,03,15,11.40
2007,06,20,03,16,11.40
2007,06,20,03,17,11.40
2007,06,20,03,18,11.40
2007,06,20,03,19,11.40
2007,06,20,03,20,11.40
2007,06,20,03,21,11.40
2007,06,20,03,22,11.40
2007,06,20,03,23,11.40
2007,06,20,03,24,11.40
2007,06,20,03,25,11.40
2007,06,20,03,26,11.40
2007,06,20,03,27,11.40
2007,06,20,03,28,11.40
2007,06,20,03,29,11.30
2007,06,20,03,30,11.30
2007,06,20,03,31,11.30
2007,06,20,03,32,11.30
2007,06,20,03,33,11.30
2007,06,20,03,34,11.20
2007,06,20,03,35,11.20
2007,06,20,03,36,11.20
2007,06,20,03,37,11.20
2007,06,20,03,38,11.20
2007,06,20,03,39,11.20
2007,06,20,03,40,11.20
2007,06,20,03,41,11.20
2007,06,20,03,42,11.20
2007,06,20,03,43,11.20
2007,06,20,03,44,11.20
2007,06,20,03,45,11.20
2007,06,20,03,46,11.20
2007,06,20,03,47,11.20
2007,06,20,03,48,11.10
2007,06,20,03,49,11.10
2007,06,20,03,50,11.10
2007,06,20,03,51,11.10
2007,06,20,03,52,11.10
2007,06,20,03,53,11.10
2007,06,20,03,54,11.10
2007,06,20,03,55,11.00
2007,06,20,03,56,11.00
2007,06,20,03,57,11.00
2007,06,20,03,58,11.00
2007,06,20,03,59,11.00
2007,06,20,04,00,11.00
2007,06,20,04,01,11.00
2007,06,20,04,02,10.90
2007,06,20,04,03,10.90
2007,06,20,04,04,10.90
2007,06,20,04,05,10.90
2007,06,20,04,06,10.90
2007,06,20,04,07,10.90
2007,06,20,04,08,10.90
2007,06,20,04,09,10.90
2007,06,20,04,10,10.90
2007,06,20,04,11,10.90
2007,06,20,04,12,10.90
2007,06,20,04,13,10.90
2007,06,20,04,14,10.80
2007,06,20,04,15,10.80
2007,06,20,04,16,10.80
2007,06,20,04,17,10.80
2007,06,20,04,18,10.80
2007,06,20,04,19,10.80
2007,06,20,04,20,10.80
2007,06,20,04,21,10.80
2007,06,20,04,22,10.70
2007,06,20,04,23,10.70
2007,06,20,04,24,10.70
2007,06,20,04,25,10.70
2007,06,20,04,26,10.70
2007,06,20,04,27,10.70
2007,06,20,04,28,10.70
2007,06,20,04,29,10.70
2007,06,20,04,30,10.60
2007,06,20,04,31,10.60
2007,06,20,04,32,10.60
2007,06,20,04,33,10.60
2007,06,20,04,34,10.60
2007,06,20,04,35,10.60
2007,06,20,04,36,10.60
2007,06,20,04,37,10.60
2007,06,20,04,38,10.60
2007,06,20,04,39,10.60
2007,06,20,04,40,10.60
2007,06,20,04,41,10.60
2007,06,20,04,42,10.50
2007,06,20,04,43,10.50
2007,06,20,04,44,10.50
2007,06,20,04,45,10.50
2007,06,20,04,46,10.40
2007,06,20,04,47,10.40
2007,06,20,04,48,10.40
2007,06,20,04,49,10.40
2007,06,20,04,50,10.40
2007,06,20,04,51,10.30
2007,06,20,04,52,10.30
2007,06,20,04,53,10.30
2007,06,20,04,54,10.30
2007,06,20,04,55,10.30
2007,06,20,04,56,10.30
2007,06,20,04,57,10.30
2007,06,20,04,58,10.30
2007,06,20,04,59,10.30
2007,06,20,05,00,10.30
2007,06,20,05,01,10.30
2007,06,20,05,02,10.20
2007,06,20,05,03,10.20
2007,06,20,05,04,10.20
2007,06,20,05,05,10.20
2007,06,20,05,06,10.20
2007,06,20,05,07,10.20
2007,06,20,05,08,10.20
2007,06,20,05,09,10.20
2007,06,20,05,10,10.20
2007,06,20,05,11,10.20
2007,06,20,05,12,10.30
2007,06,20,05,13,10.20
2007,06,20,05,14,10.30
2007,06,20,05,15,10.30
2007,06,20,05,16,10.30
2007,06,20,05,17,10.20
2007,06,20,05,18,10.20
2007,06,20,05,19,10.20
2007,06,20,05,20,10.20
2007,06,20,05,21,10.20
2007,06,20,05,22,10.20
2007,06,20,05,23,10.20
2007,06,20,05,24,10.20
2007,06,20,05,25,10.20
2007,06,20,05,26,10.20
2007,06,20,05,27,10.20
2007,06,20,05,28,10.20
2007,06,20,05,29,10.20
2007,06,20,05,30,10.10
2007,06,20,05,31,10.10
2007,06,20,05,32,10.10
2007,06,20,05,33,10.10
2007,06,20,05,34,10.10
2007,06,20,05,35,10.10
2007,06,20,05,36,10.10
2007,06,20,05,37,10.10
2007,06,20,05,38,10.10
2007,06,20,05,39,10.20
2007,06,20,05,40,10.20
2007,06,20,05,41,10.20
2007,06,20,05,42,10.20
2007,06,20,05,43,10.20
2007,06,20,05,44,10.20
2007,06,20,05,45,10.20
2007,06,20,05,46,10.20
2007,06,20,05,47,10.20
2007,06,20,05,48,10.20
2007,06,20,05,49,10.20
2007,06,20,05,50,10.20
2007,06,20,05,51,10.20
2007,06,20,05,52,10.20
2007,06,20,05,53,10.20
2007,06,20,05,54,10.20
2007,06,20,05,55,10.20
2007,06,20,05,56,10.20
2007,06,20,05,57,10.30
2007,06,20,05,58,10.30
2007,06,20,05,59,10.30
2007,06,20,06,00,10.30
2007,06,20,06,01,10.40
2007,06,20,06,02,10.40
2007,06,20,06,03,10.40
2007,06,20,06,04,10.50
2007,06,20,06,05,10.50
2007,06,20,06,06,10.50
2007,06,20,06,07,10.60
2007,06,20,06,08,10.60
2007,06,20,06,09,10.60
2007,06,20,06,10,10.70
2007,06,20,06,11,10.70
2007,06,20,06,12,10.80
2007,06,20,06,13,10.80
2007,06,20,06,14,10.80
2007,06,20,06,15,10.90
2007,06,20,06,16,10.90
2007,06,20,06,17,10.90
2007,06,20,06,18,11.00
2007,06,20,06,19,11.00
2007,06,20,06,20,11.10
2007,06,20,06,21,11.10
2007,06,20,06,22,11.10
2007,06,20,06,23,11.10
2007,06,20,06,24,11.20
2007,06,20,06,25,11.20
2007,06,20,06,26,11.20
2007,06,20,06,27,11.20
2007,06,20,06,28,11.30
2007,06,20,06,29,11.30
2007,06,20,06,30,11.30
2007,06,20,06,31,11.40
2007,06,20,06,32,11.40
2007,06,20,06,33,11.50
2007,06,20,06,34,11.50
2007,06,20,06,35,11.50
2007,06,20,06,36,11.60
2007,06,20,06,37,11.60
2007,06,20,06,38,11.70
2007,06,20,06,39,11.70
2007,06,20,06,40,11.70
2007,06,20,06,41,11.80
2007,06,20,06,42,11.80
2007,06,20,06,43,11.80
2007,06,20,06,44,11.90
2007,06,20,06,45,11.90
2007,06,20,06,46,11.90
2007,06,20,06,47,12.00
2007,06,20,06,48,12.00
2007,06,20,06,49,12.00
2007,06,20,06,50,12.10
2007,06,20,06,51,12.10
2007,06,20,06,52,12.10
2007,06,20,06,53,12.20
2007,06,20,06,54,12.20
2007,06,20,06,55,12.20
2007,06,20,06,56,12.20
2007,06,20,06,57,12.30
2007,06,20,06,58,12.30
2007,06,20,06,59,12.30
2007,06,20,07,00,12.40
2007,06,20,07,01,12.40
2007,06,20,07,02,12.50
2007,06,20,07,03,12.50
2007,06,20,07,04,12.60
2007,06,20,07,05,12.60
2007,06,20,07,06,12.60
2007,06,20,07,07,12.70
2007,06,20,07,08,12.70
2007,06,20,07,09,12.70
2007,06,20,07,10,12.80
2007,06,20,07,11,12.80
2007,06,20,07,12,12.80
2007,06,20,07,13,12.90
2007,06,20,07,14,12.90
2007,06,20,07,15,13.00
2007,06,20,07,16,13.10
2007,06,20,07,17,13.20
2007,06,20,07,18,13.30
2007,06,20,07,19,13.30
2007,06,20,07,20,13.30
2007,06,20,07,21,13.30
2007,06,20,07,22,13.40
2007,06,20,07,23,13.40
2007,06,20,07,24,13.50
2007,06,20,07,25,13.50
2007,06,20,07,26,13.60
2007,06,20,07,27,13.70
2007,06,20,07,28,13.80
2007,06,20,07,29,13.90
2007,06,20,07,30,14.00
2007,06,20,07,31,14.10
2007,06,20,07,32,14.20
2007,06,20,07,33,14.20
2007,06,20,07,34,14.30
2007,06,20,07,35,14.30
2007,06,20,07,36,14.30
2007,06,20,07,37,14.40
2007,06,20,07,38,14.40
2007,06,20,07,39,14.40
2007,06,20,07,40,14.50
2007,06,20,07,41,14.60
2007,06,20,07,42,14.50
2007,06,20,07,43,14.50
2007,06,20,07,44,14.40
2007,06,20,07,45,14.40
2007,06,20,07,46,14.40
2007,06,20,07,47,14.40
2007,06,20,07,48,14.50
2007,06,20,07,49,14.50
2007,06,20,07,50,14.60
2007,06,20,07,51,14.60
2007,06,20,07,52,14.60
2007,06,20,07,53,14.60
2007,06,20,07,54,14.60
2007,06,20,07,55,14.60
2007,06,20,07,56,14.60
2007,06,20,07,57,14.60
2007,06,20,07,58,14.70
2007,06,20,07,59,14.70
2007,06,20,08,00,14.70
2007,06,20,08,01,14.70
2007,06,20,08,02,14.80
2007,06,20,08,03,14.80
2007,06,20,08,04,14.90
2007,06,20,08,05,14.90
2007,06,20,08,06,15.00
2007,06,20,08,07,15.00
2007,06,20,08,08,15.00
2007,06,20,08,09,15.00
2007,06,20,08,10,15.00
2007,06,20,08,11,15.00
2007,06,20,08,12,15.00
2007,06,20,08,13,15.00
2007,06,20,08,14,15.10
2007,06,20,08,15,15.10
2007,06,20,08,16,15.10
2007,06,20,08,17,15.20
2007,06,20,08,18,15.20
2007,06,20,08,19,15.20
2007,06,20,08,20,15.30
2007,06,20,08,21,15.40
2007,06,20,08,22,15.40
2007,06,20,08,23,15.40
2007,06,20,08,24,15.40
2007,06,20,08,25,15.50
2007,06,20,08,26,15.50
2007,06,20,08,27,15.60
2007,06,20,08,28,15.70
2007,06,20,08,29,15.80
2007,06,20,08,30,15.90
2007,06,20,08,31,15.90
2007,06,20,08,32,16.00
2007,06,20,08,33,16.10
2007,06,20,08,34,16.20
2007,06,20,08,35,16.30
2007,06,20,08,36,16.50
2007,06,20,08,37,16.60
2007,06,20,08,38,16.70
2007,06,20,08,39,16.70
2007,06,20,08,40,16.80
2007,06,20,08,41,16.80
2007,06,20,08,42,16.80
2007,06,20,08,43,16.80
2007,06,20,08,44,16.80
2007,06,20,08,45,16.80
2007,06,20,08,46,16.90
2007,06,20,08,47,16.90
2007,06,20,08,48,16.90
2007,06,20,08,49,16.90
2007,06,20,08,50,16.90
2007,06,20,08,51,16.90
2007,06,20,08,52,16.90
2007,06,20,08,53,17.00
2007,06,20,08,54,17.00
2007,06,20,08,55,17.10
2007,06,20,08,56,17.20
2007,06,20,08,57,17.30
2007,06,20,08,58,17.30
2007,06,20,08,59,17.30
2007,06,20,09,00,17.40
2007,06,20,09,01,17.50
2007,06,20,09,02,17.60
2007,06,20,09,03,17.70
2007,06,20,09,04,17.70
2007,06,20,09,05,17.70
2007,06,20,09,06,17.70
2007,06,20,09,07,17.70
2007,06,20,09,08,17.70
2007,06,20,09,09,17.70
2007,06,20,09,10,17.70
2007,06,20,09,11,17.70
2007,06,20,09,12,17.70
2007,06,20,09,13,17.70
2007,06,20,09,14,17.80
2007,06,20,09,15,17.80
2007,06,20,09,16,17.80
2007,06,20,09,17,17.80
2007,06,20,09,18,17.80
2007,06,20,09,19,17.90
2007,06,20,09,20,17.90
2007,06,20,09,21,17.90
2007,06,20,09,22,17.90
2007,06,20,09,23,17.90
2007,06,20,09,24,17.90
2007,06,20,09,25,17.90
2007,06,20,09,26,17.90
2007,06,20,09,27,17.90
2007,06,20,09,28,18.00
2007,06,20,09,29,18.00
2007,06,20,09,30,18.00
2007,06,20,09,31,18.00
2007,06,20,09,32,18.10
2007,06,20,09,33,18.10
2007,06,20,09,34,18.20
2007,06,20,09,35,18.20
2007,06,20,09,36,18.30
2007,06,20,09,37,18.40
2007,06,20,09,38,18.40
2007,06,20,09,39,18.40
2007,06,20,09,40,18.50
2007,06,20,09,41,18.50
2007,06,20,09,42,18.60
2007,06,20,09,43,18.60
2007,06,20,09,44,18.50
2007,06,20,09,45,18.50
2007,06,20,09,46,18.60
2007,06,20,09,47,18.60
2007,06,20,09,48,18.70
2007,06,20,09,49,18.70
2007,06,20,09,50,18.70
2007,06,20,09,51,18.70
2007,06,20,09,52,18.80
2007,06,20,09,53,18.90
2007,06,20,09,54,19.00
2007,06,20,09,55,19.10
2007,06,20,09,56,19.10
2007,06,20,09,57,19.00
2007,06,20,09,58,19.00
2007,06,20,09,59,18.90
2007,06,20,10,00,18.90
2007,06,20,10,01,18.90
2007,06,20,10,02,18.90
2007,06,20,10,03,19.00
2007,06,20,10,04,19.00
2007,06,20,10,05,19.10
2007,06,20,10,06,19.10
2007,06,20,10,07,19.20
2007,06,20,10,08,19.20
2007,06,20,10,09,19.30
2007,06,20,10,10,19.30
2007,06,20,10,11,19.40
2007,06,20,10,12,19.30
2007,06,20,10,13,19.30
2007,06,20,10,14,19.30
2007,06,20,10,15,19.30
2007,06,20,10,16,19.30
2007,06,20,10,17,19.30
2007,06,20,10,18,19.30
2007,06,20,10,19,19.30
2007,06,20,10,20,19.30
2007,06,20,10,21,19.20
2007,06,20,10,22,19.20
2007,06,20,10,23,19.10
2007,06,20,10,24,19.10
2007,06,20,10,25,19.10
2007,06,20,10,26,19.10
2007,06,20,10,27,19.10
2007,06,20,10,28,19.00
2007,06,20,10,29,19.00
2007,06,20,10,30,19.00
2007,06,20,10,31,19.00
2007,06,20,10,32,19.10
2007,06,20,10,33,19.20
2007,06,20,10,34,19.30
2007,06,20,10,35,19.30
2007,06,20,10,36,19.30
2007,06,20,10,37,19.20
2007,06,20,10,38,19.20
2007,06,20,10,39,19.10
2007,06,20,10,40,19.10
2007,06,20,10,41,19.10
2007,06,20,10,42,19.10
2007,06,20,10,43,19.10
2007,06,20,10,44,19.10
2007,06,20,10,45,19.00
2007,06,20,10,46,19.00
2007,06,20,10,47,19.00
2007,06,20,10,48,18.90
2007,06,20,10,49,18.90
2007,06,20,10,50,18.80
2007,06,20,10,51,18.70
2007,06,20,10,52,18.70
2007,06,20,10,53,18.70
2007,06,20,10,54,18.70
2007,06,20,10,55,18.70
2007,06,20,10,56,18.70
2007,06,20,10,57,18.70
2007,06,20,10,58,18.70
2007,06,20,10,59,18.70
2007,06,20,11,00,18.80
2007,06,20,11,01,18.90
2007,06,20,11,02,19.00
2007,06,20,11,03,19.10
2007,06,20,11,04,19.20
2007,06,20,11,05,19.30
2007,06,20,11,06,19.40
2007,06,20,11,07,19.40
2007,06,20,11,08,19.40
2007,06,20,11,09,19.50
2007,06,20,11,10,19.50
2007,06,20,11,11,19.50
2007,06,20,11,12,19.40
2007,06,20,11,13,19.40
2007,06,20,11,14,19.30
2007,06,20,11,15,19.30
2007,06,20,11,16,19.40
2007,06,20,11,17,19.40
2007,06,20,11,18,19.40
2007,06,20,11,19,19.50
2007,06,20,11,20,19.60
2007,06,20,11,21,19.70
2007,06,20,11,22,19.70
2007,06,20,11,23,19.70
2007,06,20,11,24,19.80
2007,06,20,11,25,19.90
2007,06,20,11,26,19.90
2007,06,20,11,27,19.90
2007,06,20,11,28,19.90
2007,06,20,11,29,20.00
2007,06,20,11,30,20.00
2007,06,20,11,31,20.00
2007,06,20,11,32,20.00
2007,06,20,11,33,20.00
2007,06,20,11,34,19.90
2007,06,20,11,35,19.90
2007,06,20,11,36,19.90
2007,06,20,11,37,19.90
2007,06,20,11,38,19.80
2007,06,20,11,39,19.80
2007,06,20,11,40,19.90
2007,06,20,11,41,19.90
2007,06,20,11,42,20.00
2007,06,20,11,43,20.10
2007,06,20,11,44,20.10
2007,06,20,11,45,20.20
2007,06,20,11,46,20.30
2007,06,20,11,47,20.30
2007,06,20,11,48,20.40
2007,06,20,11,49,20.40
2007,06,20,11,50,20.40
2007,06,20,11,51,20.50
2007,06,20,11,52,20.60
2007,06,20,11,53,20.70
2007,06,20,11,54,20.80
2007,06,20,11,55,20.90
2007,06,20,11,56,21.00
2007,06,20,11,57,21.10
2007,06,20,11,58,21.10
2007,06,20,11,59,21.20
2007,06,20,12,00,21.40
2007,06,20,12,01,21.50
2007,06,20,12,02,21.50
2007,06,20,12,03,21.60
2007,06,20,12,04,21.60
2007,06,20,12,05,21.60
2007,06,20,12,06,21.50
2007,06,20,12,07,21.50
2007,06,20,12,08,21.60
2007,06,20,12,09,21.50
2007,06,20,12,10,21.50
2007,06,20,12,11,21.40
2007,06,20,12,12,21.30
2007,06,20,12,13,21.30
2007,06,20,12,14,21.30
2007,06,20,12,15,21.30
2007,06,20,12,16,21.30
2007,06,20,12,17,21.40
2007,06,20,12,18,21.50
2007,06,20,12,19,21.50
2007,06,20,12,20,21.50
2007,06,20,12,21,21.60
2007,06,20,12,22,21.70
2007,06,20,12,23,21.70
2007,06,20,12,24,21.80
2007,06,20,12,25,21.90
2007,06,20,12,26,22.00
2007,06,20,12,27,22.00
2007,06,20,12,28,22.00
2007,06,20,12,29,22.00
2007,06,20,12,30,21.90
2007,06,20,12,31,21.90
2007,06,20,12,32,21.80
2007,06,20,12,33,21.70
2007,06,20,12,34,21.60
2007,06,20,12,35,21.50
2007,06,20,12,36,21.40
2007,06,20,12,37,21.50
2007,06,20,12,38,21.60
2007,06,20,12,39,21.70
2007,06,20,12,40,21.70
2007,06,20,12,41,21.70
2007,06,20,12,42,21.70
2007,06,20,12,43,21.80
2007,06,20,12,44,21.80
2007,06,20,12,45,21.80
2007,06,20,12,46,21.80
2007,06,20,12,47,21.70
2007,06,20,12,48,21.70
2007,06,20,12,49,21.70
2007,06,20,12,50,21.70
2007,06,20,12,51,21.80
2007,06,20,12,52,21.80
2007,06,20,12,53,21.80
2007,06,20,12,54,21.80
2007,06,20,12,55,21.90
2007,06,20,12,56,21.90
2007,06,20,12,57,21.90
2007,06,20,12,58,21.90
2007,06,20,12,59,21.90
2007,06,20,13,00,21.80
2007,06,20,13,01,21.80
2007,06,20,13,02,21.80
2007,06,20,13,03,21.90
2007,06,20,13,04,21.90
2007,06,20,13,05,21.90
2007,06,20,13,06,21.90
2007,06,20,13,07,21.90
2007,06,20,13,08,21.90
2007,06,20,13,09,21.90
2007,06,20,13,10,21.90
2007,06,20,13,11,21.90
2007,06,20,13,12,22.00
2007,06,20,13,13,22.00
2007,06,20,13,14,22.10
2007,06,20,13,15,22.10
2007,06,20,13,16,22.10
2007,06,20,13,17,22.10
2007,06,20,13,18,22.10
2007,06,20,13,19,22.10
2007,06,20,13,20,22.20
2007,06,20,13,21,22.20
2007,06,20,13,22,22.30
2007,06,20,13,23,22.40
2007,06,20,13,24,22.40
2007,06,20,13,25,22.40
2007,06,20,13,26,22.40
2007,06,20,13,27,22.40
2007,06,20,13,28,22.50
2007,06,20,13,29,22.60
2007,06,20,13,30,22.70
2007,06,20,13,31,22.80
2007,06,20,13,32,22.90
2007,06,20,13,33,22.90
2007,06,20,13,34,22.90
2007,06,20,13,35,23.00
2007,06,20,13,36,23.00
2007,06,20,13,37,23.10
2007,06,20,13,38,23.10
2007,06,20,13,39,23.10
2007,06,20,13,40,23.10
2007,06,20,13,41,23.20
2007,06,20,13,42,23.30
2007,06,20,13,43,23.30
2007,06,20,13,44,23.20
2007,06,20,13,45,23.20
2007,06,20,13,46,23.10
2007,06,20,13,47,23.10
2007,06,20,13,48,23.00
2007,06,20,13,49,23.00
2007,06,20,13,50,22.90
2007,06,20,13,51,22.90
2007,06,20,13,52,22.80
2007,06,20,13,53,22.80
2007,06,20,13,54,22.80
2007,06,20,13,55,22.80
2007,06,20,13,56,22.70
2007,06,20,13,57,22.70
2007,06,20,13,58,22.70
2007,06,20,13,59,22.70
2007,06,20,14,00,22.70
2007,06,20,14,01,22.80
2007,06,20,14,02,22.90
2007,06,20,14,03,23.00
2007,06,20,14,04,23.00
2007,06,20,14,05,23.10
2007,06,20,14,06,23.00
2007,06,20,14,07,23.00
2007,06,20,14,08,22.90
2007,06,20,14,09,22.80
2007,06,20,14,10,22.80
2007,06,20,14,11,22.90
2007,06,20,14,12,22.90
2007,06,20,14,13,22.90
2007,06,20,14,14,22.90
2007,06,20,14,15,22.90
2007,06,20,14,16,23.00
2007,06,20,14,17,23.00
2007,06,20,14,18,23.10
2007,06,20,14,19,23.10
2007,06,20,14,20,23.20
2007,06,20,14,21,23.20
2007,06,20,14,22,23.30
2007,06,20,14,23,23.40
2007,06,20,14,24,23.50
2007,06,20,14,25,23.60
2007,06,20,14,26,23.60
2007,06,20,14,27,23.50
2007,06,20,14,28,23.40
2007,06,20,14,29,23.40
2007,06,20,14,30,23.40
2007,06,20,14,31,23.40
2007,06,20,14,32,23.40
2007,06,20,14,33,23.50
2007,06,20,14,34,23.60
2007,06,20,14,35,23.70
2007,06,20,14,36,23.70
2007,06,20,14,37,23.70
2007,06,20,14,38,23.80
2007,06,20,14,39,23.80
2007,06,20,14,40,23.80
2007,06,20,14,41,23.70
2007,06,20,14,42,23.60
2007,06,20,14,43,23.60
2007,06,20,14,44,23.60
2007,06,20,14,45,23.60
2007,06,20,14,46,23.50
2007,06,20,14,47,23.50
2007,06,20,14,48,23.40
2007,06,20,14,49,23.40
2007,06,20,14,50,23.40
2007,06,20,14,51,23.50
2007,06,20,14,52,23.60
2007,06,20,14,53,23.60
2007,06,20,14,54,23.60
2007,06,20,14,55,23.60
2007,06,20,14,56,23.50
2007,06,20,14,57,23.40
2007,06,20,14,58,23.40
2007,06,20,14,59,23.30
2007,06,20,15,00,23.30
2007,06,20,15,01,23.30
2007,06,20,15,02,23.20
2007,06,20,15,03,23.20
2007,06,20,15,04,23.10
2007,06,20,15,05,23.10
2007,06,20,15,06,23.10
2007,06,20,15,07,23.10
2007,06,20,15,08,23.10
2007,06,20,15,09,23.00
2007,06,20,15,10,22.90
2007,06,20,15,11,22.90
2007,06,20,15,12,22.90
2007,06,20,15,13,23.00
2007,06,20,15,14,23.00
2007,06,20,15,15,23.10
2007,06,20,15,16,23.10
2007,06,20,15,17,23.20
2007,06,20,15,18,23.30
2007,06,20,15,19,23.30
2007,06,20,15,20,23.40
2007,06,20,15,21,23.50
2007,06,20,15,22,23.60
2007,06,20,15,23,23.70
2007,06,20,15,24,23.70
2007,06,20,15,25,23.60
2007,06,20,15,26,23.60
2007,06,20,15,27,23.60
2007,06,20,15,28,23.70
2007,06,20,15,29,23.80
2007,06,20,15,30,23.80
2007,06,20,15,31,23.80
2007,06,20,15,32,23.90
2007,06,20,15,33,24.00
2007,06,20,15,34,24.00
2007,06,20,15,35,24.10
2007,06,20,15,36,24.10
2007,06,20,15,37,24.10
2007,06,20,15,38,24.10
2007,06,20,15,39,24.00
2007,06,20,15,40,23.90
2007,06,20,15,41,23.80
2007,06,20,15,42,23.80
2007,06,20,15,43,23.90
2007,06,20,15,44,23.90
2007,06,20,15,45,23.90
2007,06,20,15,46,23.80
2007,06,20,15,47,23.80
2007,06,20,15,48,23.80
2007,06,20,15,49,23.80
2007,06,20,15,50,23.80
2007,06,20,15,51,23.80
2007,06,20,15,52,23.90
2007,06,20,15,53,23.80
2007,06,20,15,54,23.80
2007,06,20,15,55,23.80
2007,06,20,15,56,23.90
2007,06,20,15,57,23.90
2007,06,20,15,58,23.90
2007,06,20,15,59,24.00
2007,06,20,16,00,24.00
2007,06,20,16,01,24.00
2007,06,20,16,02,24.00
2007,06,20,16,03,23.90
2007,06,20,16,04,23.90
2007,06,20,16,05,23.90
2007,06,20,16,06,23.80
2007,06,20,16,07,23.80
2007,06,20,16,08,23.80
2007,06,20,16,09,23.80
2007,06,20,16,10,23.70
2007,06,20,16,11,23.70
2007,06,20,16,12,23.80
2007,06,20,16,13,23.90
2007,06,20,16,14,23.90
2007,06,20,16,15,23.80
2007,06,20,16,16,23.80
2007,06,20,16,17,23.80
2007,06,20,16,18,23.80
2007,06,20,16,19,23.80
2007,06,20,16,20,23.80
2007,06,20,16,21,23.80
2007,06,20,16,22,23.80
2007,06,20,16,23,23.70
2007,06,20,16,24,23.60
2007,06,20,16,25,23.60
2007,06,20,16,26,23.60
2007,06,20,16,27,23.60
2007,06,20,16,28,23.60
2007,06,20,16,29,23.70
2007,06,20,16,30,23.70
2007,06,20,16,31,23.60
2007,06,20,16,32,23.60
2007,06,20,16,33,23.60
2007,06,20,16,34,23.60
2007,06,20,16,35,23.60
2007,06,20,16,36,23.70
2007,06,20,16,37,23.60
2007,06,20,16,38,23.50
2007,06,20,16,39,23.40
2007,06,20,16,40,23.40
2007,06,20,16,41,23.30
2007,06,20,16,42,23.30
2007,06,20,16,43,23.30
2007,06,20,16,44,23.30
2007,06,20,16,45,23.30
2007,06,20,16,46,23.30
2007,06,20,16,47,23.30
2007,06,20,16,48,23.20
2007,06,20,16,49,23.20
2007,06,20,16,50,23.20
2007,06,20,16,51,23.30
2007,06,20,16,52,23.30
2007,06,20,16,53,23.30
2007,06,20,16,54,23.20
2007,06,20,16,55,23.20
2007,06,20,16,56,23.10
2007,06,20,16,57,23.00
2007,06,20,16,58,22.90
2007,06,20,16,59,22.80
2007,06,20,17,00,22.80
2007,06,20,17,01,22.80
2007,06,20,17,02,22.80
2007,06,20,17,03,22.80
2007,06,20,17,04,22.80
2007,06,20,17,05,22.80
2007,06,20,17,06,22.80
2007,06,20,17,07,22.80
2007,06,20,17,08,22.70
2007,06,20,17,09,22.70
2007,06,20,17,10,22.70
2007,06,20,17,11,22.70
2007,06,20,17,12,22.80
2007,06,20,17,13,22.80
2007,06,20,17,14,22.80
2007,06,20,17,15,22.90
2007,06,20,17,16,22.90
2007,06,20,17,17,22.90
2007,06,20,17,18,22.90
2007,06,20,17,19,22.90
2007,06,20,17,20,23.00